| time (UTC) | temp F | wind direction | speed knots | gust knots | rain 1hr in | rain 24hr in | rain mn in | humidity % | barometer mb |
| 20260831102229 | 66 | 256 | 13.0 | 22.6 | 0.00 | 0.00 | 0.00 | 31 | 1014.0 |
| 20260831101235 | 66 | 257 | 14.8 | 20.0 | 0.00 | 0.00 | 0.00 | 33 | 1014.1 |
| 20260831100738 | 66 | 249 | 14.8 | 20.0 | 0.00 | 0.00 | 0.00 | 34 | 1014.0 |
| 20260831095744 | 66 | 248 | 13.9 | 20.9 | 0.00 | 0.00 | 0.00 | 35 | 1014.0 |
| 20260831095247 | 66 | 257 | 14.8 | 20.9 | 0.00 | 0.00 | 0.00 | 35 | 1014.0 |
| 20260831094750 | 66 | 258 | 13.9 | 20.9 | 0.00 | 0.00 | 0.00 | 36 | 1014.2 |
| 20260831094253 | 66 | 253 | 13.0 | 19.1 | 0.00 | 0.00 | 0.00 | 36 | 1014.2 |
| 20260831093259 | 66 | 256 | 13.0 | 20.0 | 0.00 | 0.00 | 0.00 | 36 | 1014.1 |
| 20260831092802 | 67 | 257 | 13.0 | 20.9 | 0.00 | 0.00 | 0.00 | 36 | 1014.1 |
| 20260831092306 | 67 | 258 | 11.3 | 22.6 | 0.00 | 0.00 | 0.00 | 36 | 1014.2 |
| 20260831091808 | 67 | 259 | 13.9 | 22.6 | 0.00 | 0.00 | 0.00 | 36 | 1014.2 |
| 20260831091311 | 67 | 258 | 13.0 | 18.2 | 0.00 | 0.00 | 0.00 | 35 | 1014.2 |
| 20260831090317 | 67 | 246 | 12.2 | 20.9 | 0.00 | 0.00 | 0.00 | 35 | 1014.3 |
| 20260831085323 | 67 | 254 | 12.2 | 19.1 | 0.00 | 0.00 | 0.00 | 36 | 1014.3 |
| 20260831084329 | 67 | 247 | 13.9 | 20.9 | 0.00 | 0.00 | 0.00 | 36 | 1014.4 |
| 20260831083832 | 67 | 252 | 15.6 | 20.9 | 0.00 | 0.00 | 0.00 | 37 | 1014.5 |
| 20260831083335 | 67 | 253 | 13.0 | 20.0 | 0.00 | 0.00 | 0.00 | 39 | 1014.4 |
| 20260831082341 | 67 | 253 | 14.8 | 20.9 | 0.00 | 0.00 | 0.00 | 39 | 1014.4 |
| 20260831081844 | 68 | 252 | 15.6 | 20.9 | 0.00 | 0.00 | 0.00 | 39 | 1014.6 |
| 20260831081347 | 68 | 245 | 14.8 | 19.1 | 0.00 | 0.00 | 0.00 | 40 | 1014.7 |
| 20260831080850 | 68 | 246 | 13.0 | 20.9 | 0.00 | 0.00 | 0.00 | 38 | 1014.7 |
| 20260831075856 | 68 | 245 | 12.2 | 20.0 | 0.00 | 0.00 | 0.00 | 40 | 1014.8 |
| 20260831074902 | 67 | 242 | 14.8 | 20.0 | 0.00 | 0.00 | 0.00 | 41 | 1014.8 |
| 20260831074405 | 67 | 254 | 14.8 | 20.0 | 0.00 | 0.00 | 0.00 | 41 | 1014.9 |
| 20260831073908 | 67 | 249 | 13.9 | 20.0 | 0.00 | 0.00 | 0.00 | 43 | 1014.8 |
| 20260831072914 | 67 | 246 | 13.9 | 19.1 | 0.00 | 0.00 | 0.00 | 42 | 1014.8 |
| 20260831072417 | 68 | 241 | 12.2 | 18.2 | 0.00 | 0.00 | 0.00 | 41 | 1014.8 |
| 20260831071920 | 68 | 245 | 11.3 | 17.4 | 0.00 | 0.00 | 0.00 | 41 | 1014.7 |
| 20260831071423 | 68 | 248 | 13.0 | 17.4 | 0.00 | 0.00 | 0.00 | 42 | 1014.8 |
| 20260831070926 | 68 | 245 | 13.0 | 18.2 | 0.00 | 0.00 | 0.00 | 42 | 1014.8 |
| 20260831065932 | 68 | 252 | 12.2 | 17.4 | 0.00 | 0.00 | 0.00 | 41 | 1014.8 |
| 20260831063944 | 68 | 256 | 7.0 | 14.8 | 0.00 | 0.00 | 0.00 | 40 | 1014.9 |
| 20260831063447 | 69 | 254 | 8.7 | 15.6 | 0.00 | 0.00 | 0.00 | 39 | 1014.8 |
| 20260831062950 | 69 | 246 | 9.6 | 17.4 | 0.00 | 0.00 | 0.00 | 38 | 1014.8 |
| 20260831062453 | 69 | 248 | 12.2 | 17.4 | 0.00 | 0.00 | 0.00 | 38 | 1014.9 |
| 20260831061956 | 69 | 254 | 9.6 | 16.5 | 0.00 | 0.00 | 0.00 | 38 | 1014.6 |
| 20260831061459 | 69 | 250 | 10.4 | 18.2 | 0.00 | 0.00 | 0.00 | 38 | 1014.7 |
| 20260831061002 | 69 | 255 | 12.2 | 18.2 | 0.00 | 0.00 | 0.00 | 37 | 1014.7 |
| 20260831055014 | 69 | 262 | 8.7 | 14.8 | 0.00 | 0.00 | 0.00 | 33 | 1014.6 |
| 20260831054517 | 69 | 263 | 10.4 | 14.8 | 0.00 | 0.00 | 0.00 | 34 | 1014.6 |
| 20260831053523 | 69 | 258 | 8.7 | 16.5 | 0.00 | 0.00 | 0.00 | 38 | 1014.6 |
| 20260831053026 | 69 | 257 | 11.3 | 16.5 | 0.00 | 0.00 | 0.00 | 38 | 1014.6 |
| 20260831051535 | 69 | 255 | 10.4 | 18.2 | 0.00 | 0.00 | 0.00 | 41 | 1015.3 |
| 20260831051038 | 69 | 259 | 12.2 | 18.2 | 0.00 | 0.00 | 0.00 | 41 | 1015.3 |
| 20260831050541 | 68 | 255 | 10.4 | 17.4 | 0.00 | 0.00 | 0.00 | 43 | 1015.2 |
| 20260831044553 | 68 | 254 | 12.2 | 16.5 | 0.00 | 0.00 | 0.00 | 47 | 1015.3 |
| 20260831044056 | 68 | 254 | 11.3 | 16.5 | 0.00 | 0.00 | 0.00 | 49 | 1015.4 |
| 20260831042108 | 68 | 249 | 11.3 | 17.4 | 0.00 | 0.00 | 0.00 | 57 | 1015.2 |
| 20260831041611 | 68 | 251 | 9.6 | 17.4 | 0.00 | 0.00 | 0.00 | 58 | 1015.2 |
| 20260831041114 | 68 | 259 | 12.2 | 17.4 | 0.00 | 0.00 | 0.00 | 59 | 1015.2 |
| 20260831040617 | 67 | 258 | 10.4 | 16.5 | 0.00 | 0.00 | 0.00 | 59 | 1015.1 |
| 20260831033635 | 68 | 258 | 10.4 | 18.2 | 0.00 | 0.00 | 0.00 | 64 | 1014.8 |
| 20260831032641 | 68 | 257 | 12.2 | 17.4 | 0.00 | 0.00 | 0.00 | 63 | 1014.5 |
| 20260831032144 | 67 | 248 | 11.3 | 17.4 | 0.00 | 0.00 | 0.00 | 65 | 1014.6 |
| 20260831031647 | 67 | 255 | 11.3 | 15.6 | 0.00 | 0.00 | 0.00 | 66 | 1014.5 |
| 20260831030653 | 68 | 247 | 12.2 | 16.5 | 0.00 | 0.00 | 0.00 | 67 | 1014.5 |
| 20260831030156 | 68 | 254 | 11.3 | 20.0 | 0.00 | 0.00 | 0.00 | 67 | 1014.5 |
| 20260831025659 | 68 | 249 | 12.2 | 20.0 | 0.00 | 0.00 | 0.00 | 67 | 1014.5 |
| 20260831024208 | 68 | 256 | 13.0 | 18.2 | 0.00 | 0.00 | 0.00 | 66 | 1014.5 |
| 20260831023711 | 69 | 255 | 11.3 | 17.4 | 0.00 | 0.00 | 0.00 | 65 | 1014.5 |
| 20260831023214 | 69 | 260 | 12.2 | 16.5 | 0.00 | 0.00 | 0.00 | 64 | 1014.5 |
| 20260831022717 | 69 | 267 | 13.0 | 17.4 | 0.00 | 0.00 | 0.00 | 63 | 1014.4 |
| 20260831022220 | 70 | 265 | 12.2 | 19.1 | 0.00 | 0.00 | 0.00 | 62 | 1014.5 |
| 20260831021723 | 70 | 266 | 13.0 | 19.1 | 0.00 | 0.00 | 0.00 | 61 | 1014.4 |
| 20260831020232 | 72 | 258 | 13.9 | 19.1 | 0.00 | 0.00 | 0.00 | 56 | 1014.2 |
| 20260831015735 | 72 | 256 | 10.4 | 21.7 | 0.00 | 0.00 | 0.00 | 54 | 1014.2 |
| 20260831015238 | 73 | 267 | 9.6 | 21.7 | 0.00 | 0.00 | 0.00 | 53 | 1014.1 |
| 20260831014741 | 73 | 256 | 16.5 | 21.7 | 0.00 | 0.00 | 0.00 | 51 | 1014.1 |
| 20260831014244 | 73 | 259 | 16.5 | 21.7 | 0.00 | 0.00 | 0.00 | 50 | 1014.1 |
| 20260831013747 | 74 | 257 | 16.5 | 21.7 | 0.00 | 0.00 | 0.00 | 48 | 1014.0 |
| 20260831013250 | 74 | 259 | 14.8 | 21.7 | 0.00 | 0.00 | 0.00 | 47 | 1014.1 |
| 20260831012753 | 75 | 262 | 16.5 | 23.5 | 0.00 | 0.00 | 0.00 | 46 | 1014.1 |
| 20260831012256 | 75 | 263 | 16.5 | 23.5 | 0.00 | 0.00 | 0.00 | 44 | 1014.1 |
| 20260831011759 | 75 | 256 | 16.5 | 23.5 | 0.00 | 0.00 | 0.00 | 44 | 1014.1 |
| 20260831011302 | 76 | 259 | 15.6 | 23.5 | 0.00 | 0.00 | 0.00 | 44 | 1014.0 |
| 20260831010805 | 76 | 257 | 14.8 | 22.6 | 0.00 | 0.00 | 0.00 | 42 | 1014.0 |
| 20260831010308 | 77 | 260 | 16.5 | 21.7 | 0.00 | 0.00 | 0.00 | 40 | 1014.1 |
| 20260831005811 | 78 | 271 | 13.0 | 19.1 | 0.00 | 0.00 | 0.00 | 40 | 1014.2 |
| 20260831004817 | 78 | 266 | 13.0 | 21.7 | 0.00 | 0.00 | 0.00 | 39 | 1014.2 |
| 20260831004320 | 79 | 281 | 14.8 | 21.7 | 0.00 | 0.00 | 0.00 | 38 | 1014.3 |
| 20260831003823 | 79 | 267 | 9.6 | 18.2 | 0.00 | 0.00 | 0.00 | 38 | 1014.2 |
| 20260831003326 | 79 | 281 | 7.8 | 21.7 | 0.00 | 0.00 | 0.00 | 39 | 1014.2 |
| 20260831002829 | 79 | 272 | 12.2 | 21.7 | 0.00 | 0.00 | 0.00 | 38 | 1014.3 |
| 20260831002332 | 80 | 267 | 13.0 | 19.1 | 0.00 | 0.00 | 0.00 | 36 | 1014.4 |
| 20260831001835 | 80 | 266 | 11.3 | 19.1 | 0.00 | 0.00 | 0.00 | 36 | 1014.5 |
| 20260831001338 | 80 | 255 | 9.6 | 20.0 | 0.00 | 0.00 | 0.00 | 35 | 1014.6 |
| 20260831000841 | 80 | 258 | 14.8 | 20.9 | 0.00 | 0.00 | 0.00 | 33 | 1014.3 |
| 20260831000344 | 80 | 267 | 11.3 | 20.9 | 0.00 | 0.00 | 0.00 | 33 | 1014.4 |
| 20260830235847 | 80 | 261 | 14.8 | 20.9 | 0.00 | 0.00 | 0.00 | 32 | 1014.5 |
| 20260830235350 | 81 | 257 | 10.4 | 20.9 | 0.00 | 0.00 | 0.00 | 32 | 1014.6 |
| 20260830234853 | 81 | 264 | 13.9 | 20.9 | 0.00 | 0.00 | 0.00 | 31 | 1014.6 |
| 20260830234356 | 81 | 262 | 12.2 | 20.0 | 0.00 | 0.00 | 0.00 | 32 | 1014.7 |
| 20260830233859 | 81 | 255 | 11.3 | 20.0 | 0.00 | 0.00 | 0.00 | 31 | 1014.8 |
| 20260830233402 | 81 | 244 | 12.2 | 20.0 | 0.00 | 0.00 | 0.00 | 30 | 1014.7 |
| 20260830232408 | 82 | 261 | 9.6 | 20.9 | 0.00 | 0.00 | 0.00 | 31 | 1014.7 |
| 20260830231911 | 82 | 277 | 14.8 | 20.0 | 0.00 | 0.00 | 0.00 | 32 | 1014.5 |
| 20260830231414 | 82 | 271 | 13.9 | 20.9 | 0.00 | 0.00 | 0.00 | 31 | 1014.6 |
| 20260830230917 | 82 | 257 | 13.9 | 21.7 | 0.00 | 0.00 | 0.00 | 31 | 1014.7 |
| 20260830225923 | 83 | 241 | 13.0 | 20.9 | 0.00 | 0.00 | 0.00 | 32 | 1014.9 |
| 20260830225426 | 83 | 265 | 11.3 | 20.9 | 0.00 | 0.00 | 0.00 | 32 | 1015.0 |
| 20260830224929 | 83 | 269 | 11.3 | 19.1 | 0.00 | 0.00 | 0.00 | 31 | 1014.9 |
| 20260830222941 | 83 | 293 | 9.6 | 19.1 | 0.00 | 0.00 | 0.00 | 32 | 1015.2 |
| 20260830222444 | 83 | 255 | 11.3 | 18.2 | 0.00 | 0.00 | 0.00 | 32 | 1015.2 |
| 20260830221947 | 84 | 259 | 11.3 | 18.2 | 0.00 | 0.00 | 0.00 | 32 | 1015.1 |
| 20260830221450 | 84 | 252 | 11.3 | 18.2 | 0.00 | 0.00 | 0.00 | 32 | 1015.1 |
| 20260830220953 | 84 | 292 | 11.3 | 20.9 | 0.00 | 0.00 | 0.00 | 32 | 1015.1 |
| 20260830220456 | 85 | 245 | 10.4 | 20.9 | 0.00 | 0.00 | 0.00 | 33 | 1015.2 |
| 20260830215959 | 86 | 284 | 11.3 | 17.4 | 0.00 | 0.00 | 0.00 | 32 | 1015.2 |
| 20260830215502 | 85 | 268 | 5.2 | 15.6 | 0.00 | 0.00 | 0.00 | 33 | 1015.2 |
| 20260830214508 | 84 | 245 | 12.2 | 20.0 | 0.00 | 0.00 | 0.00 | 34 | 1015.3 |
| 20260830214011 | 84 | 292 | 10.4 | 19.1 | 0.00 | 0.00 | 0.00 | 34 | 1015.4 |
| 20260830213017 | 85 | 255 | 8.7 | 17.4 | 0.00 | 0.00 | 0.00 | 34 | 1015.5 |
| 20260830212023 | 85 | 288 | 13.0 | 20.9 | 0.00 | 0.00 | 0.00 | 34 | 1015.6 |
| 20260830211526 | 85 | 260 | 7.0 | 15.6 | 0.00 | 0.00 | 0.00 | 35 | 1015.6 |
| 20260830210532 | 85 | 289 | 10.4 | 22.6 | 0.00 | 0.00 | 0.00 | 34 | 1015.7 |
| 20260830205538 | 86 | 288 | 9.6 | 16.5 | 0.00 | 0.00 | 0.00 | 34 | 1015.8 |
| 20260830204544 | 85 | 273 | 7.8 | 18.2 | 0.00 | 0.00 | 0.00 | 34 | 1015.8 |
| 20260830204047 | 85 | 226 | 10.4 | 18.2 | 0.00 | 0.00 | 0.00 | 34 | 1015.9 |
| 20260830202556 | 85 | 218 | 10.4 | 17.4 | 0.00 | 0.00 | 0.00 | 33 | 1016.0 |
| 20260830202059 | 85 | 224 | 12.2 | 17.4 | 0.00 | 0.00 | 0.00 | 35 | 1016.0 |
| 20260830201602 | 85 | 239 | 8.7 | 16.5 | 0.00 | 0.00 | 0.00 | 36 | 1016.2 |
| 20260830201105 | 85 | 236 | 9.6 | 17.4 | 0.00 | 0.00 | 0.00 | 36 | 1016.1 |
| 20260830200111 | 85 | 238 | 8.7 | 17.4 | 0.00 | 0.00 | 0.00 | 35 | 1016.1 |
| 20260830195614 | 85 | 236 | 10.4 | 17.4 | 0.00 | 0.00 | 0.00 | 35 | 1016.0 |
| 20260830194620 | 85 | 221 | 10.4 | 15.6 | 0.00 | 0.00 | 0.00 | 34 | 1016.2 |
| 20260830194123 | 86 | 238 | 8.7 | 16.5 | 0.00 | 0.00 | 0.00 | 33 | 1016.1 |
| 20260830193129 | 86 | 212 | 8.7 | 13.9 | 0.00 | 0.00 | 0.00 | 33 | 1016.3 |
| 20260830192135 | 85 | 203 | 6.1 | 17.4 | 0.00 | 0.00 | 0.00 | 33 | 1016.2 |
| 20260830190644 | 85 | 229 | 10.4 | 17.4 | 0.00 | 0.00 | 0.00 | 32 | 1016.4 |
| 20260830185650 | 84 | 276 | 7.8 | 13.9 | 0.00 | 0.00 | 0.00 | 33 | 1016.5 |
| 20260830185153 | 84 | 248 | 8.7 | 13.9 | 0.00 | 0.00 | 0.00 | 33 | 1016.6 |
| 20260830182708 | 84 | 243 | 7.8 | 13.9 | 0.00 | 0.00 | 0.00 | 33 | 1016.8 |
| 20260830181714 | 84 | 267 | 6.1 | 13.0 | 0.00 | 0.00 | 0.00 | 32 | 1016.9 |
| 20260830181217 | 84 | 252 | 7.0 | 13.0 | 0.00 | 0.00 | 0.00 | 32 | 1016.9 |
| 20260830180720 | 84 | 226 | 4.3 | 13.0 | 0.00 | 0.00 | 0.00 | 31 | 1016.9 |
| 20260830180223 | 83 | 229 | 3.5 | 14.8 | 0.00 | 0.00 | 0.00 | 31 | 1016.8 |
| 20260830174732 | 83 | 243 | 7.8 | 14.8 | 0.00 | 0.00 | 0.00 | 30 | 1016.7 |
| 20260830173738 | 82 | 223 | 7.8 | 19.1 | 0.00 | 0.00 | 0.00 | 30 | 1016.7 |
| 20260830173241 | 82 | 203 | 8.7 | 19.1 | 0.00 | 0.00 | 0.00 | 29 | 1016.7 |
| 20260830172247 | 82 | 232 | 7.8 | 13.9 | 0.00 | 0.00 | 0.00 | 31 | 1016.4 |
| 20260830171253 | 82 | 205 | 8.7 | 13.0 | 0.00 | 0.00 | 0.00 | 31 | 1016.4 |
| 20260830165802 | 81 | 246 | 6.1 | 10.4 | 0.00 | 0.00 | 0.00 | ||
| 20260830165306 | 81 | 252 | 7.0 | 13.0 | 0.00 | 0.00 | 0.00 | 34 | 1016.3 |
| 20260830164311 | 80 | 277 | 6.1 | 13.0 | 0.00 | 0.00 | 0.00 | 35 | 1016.2 |
| 20260830163814 | 80 | 283 | 4.3 | 11.3 | 0.00 | 0.00 | 0.00 | 36 | 1016.2 |
| 20260830163317 | 79 | 223 | 4.3 | 14.8 | 0.00 | 0.00 | 0.00 | 37 | 1016.1 |
| 20260830162323 | 78 | 275 | 10.4 | 14.8 | 0.00 | 0.00 | 0.00 | 37 | 1016.0 |
| 20260830161826 | 78 | 259 | 7.0 | 13.0 | 0.00 | 0.00 | 0.00 | 39 | 1015.7 |
| 20260830161329 | 78 | 265 | 7.8 | 14.8 | 0.00 | 0.00 | 0.00 | 39 | 1015.8 |
| 20260830160832 | 77 | 244 | 8.7 | 17.4 | 0.00 | 0.00 | 0.00 | 39 | 1015.7 |
| 20260830160336 | 77 | 261 | 10.4 | 18.2 | 0.00 | 0.00 | 0.00 | 39 | 1015.8 |
| 20260830155838 | 77 | 254 | 10.4 | 18.2 | 0.00 | 0.00 | 0.00 | 40 | 1015.7 |
| 20260830154844 | 76 | 254 | 9.6 | 18.2 | 0.00 | 0.00 | 0.00 | 41 | 1015.7 |
| 20260830153353 | 75 | 255 | 9.6 | 17.4 | 0.00 | 0.00 | 0.00 | 42 | 1015.6 |
| 20260830151902 | 75 | 266 | 13.0 | 18.2 | 0.00 | 0.00 | 0.00 | 43 | 1015.3 |
| 20260830151405 | 74 | 256 | 10.4 | 17.4 | 0.00 | 0.00 | 0.00 | 44 | 1015.3 |
| 20260830150908 | 74 | 259 | 10.4 | 17.4 | 0.00 | 0.00 | 0.00 | 44 | 1015.3 |
| 20260830150411 | 74 | 250 | 11.3 | 15.6 | 0.00 | 0.00 | 0.00 | 44 | 1015.4 |
| 20260830145914 | 73 | 256 | 11.3 | 15.6 | 0.00 | 0.00 | 0.00 | 44 | 1015.4 |
| 20260830145417 | 73 | 257 | 12.2 | 16.5 | 0.00 | 0.00 | 0.00 | 45 | 1015.5 |
| 20260830144423 | 72 | 260 | 9.6 | 15.6 | 0.00 | 0.00 | 0.00 | 46 | 1015.5 |
| 20260830142932 | 71 | 263 | 11.3 | 16.5 | 0.00 | 0.00 | 0.00 | 47 | 1015.4 |
| 20260830142435 | 71 | 254 | 11.3 | 16.5 | 0.00 | 0.00 | 0.00 | 47 | 1015.4 |
| 20260830141938 | 71 | 255 | 8.7 | 15.6 | 0.00 | 0.00 | 0.00 | 47 | 1015.5 |
| 20260830141441 | 71 | 254 | 9.6 | 15.6 | 0.00 | 0.00 | 0.00 | 47 | 1015.4 |
| 20260830135950 | 70 | 256 | 10.4 | 14.8 | 0.00 | 0.00 | 0.00 | 48 | 1015.2 |
| 20260830135453 | 70 | 264 | 11.3 | 16.5 | 0.00 | 0.00 | 0.00 | 48 | 1015.2 |
| 20260830134459 | 70 | 258 | 11.3 | 16.5 | 0.00 | 0.00 | 0.00 | 48 | 1015.0 |
| 20260830134002 | 70 | 251 | 11.3 | 16.5 | 0.00 | 0.00 | 0.00 | 48 | 1015.0 |
| 20260830133008 | 70 | 256 | 11.3 | 16.5 | 0.00 | 0.00 | 0.00 | 49 | 1014.9 |
| 20260830132511 | 70 | 254 | 9.6 | 16.5 | 0.00 | 0.00 | 0.00 | 49 | 1014.8 |
| 20260830131517 | 70 | 255 | 10.4 | 18.2 | 0.00 | 0.00 | 0.00 | 50 | 1014.8 |
| 20260830125529 | 70 | 250 | 10.4 | 18.2 | 0.00 | 0.00 | 0.00 | 51 | 1014.7 |
| 20260830124535 | 70 | 248 | 10.4 | 18.2 | 0.00 | 0.00 | 0.00 | 52 | 1014.7 |
| 20260830124038 | 70 | 254 | 12.2 | 18.2 | 0.00 | 0.00 | 0.00 | 52 | 1014.6 |
| 20260830122547 | 70 | 255 | 11.3 | 18.2 | 0.00 | 0.00 | 0.00 | 52 | 1014.7 |
| 20260830122050 | 70 | 259 | 13.0 | 18.2 | 0.00 | 0.00 | 0.00 | 52 | 1014.7 |
| 20260830121056 | 69 | 264 | 10.4 | 17.4 | 0.00 | 0.00 | 0.00 | 53 | 1014.6 |
| 20260830115605 | 69 | 264 | 10.4 | 17.4 | 0.00 | 0.00 | 0.00 | 52 | 1014.7 |
| 20260830115108 | 69 | 268 | 9.6 | 16.5 | 0.00 | 0.00 | 0.00 | 52 | 1014.5 |
| 20260830113617 | 69 | 264 | 11.3 | 21.7 | 0.00 | 0.00 | 0.00 | 52 | 1014.6 |
| 20260830113120 | 69 | 269 | 11.3 | 21.7 | 0.00 | 0.00 | 0.00 | 52 | 1014.5 |
| 20260830112126 | 69 | 260 | 11.3 | 18.2 | 0.00 | 0.00 | 0.00 | 53 | 1014.6 |
| 20260830111629 | 69 | 260 | 11.3 | 18.2 | 0.00 | 0.00 | 0.00 | 53 | 1014.4 |
| 20260830110635 | 69 | 256 | 11.3 | 19.1 | 0.00 | 0.00 | 0.00 | 53 | 1014.4 |
| 20260830110138 | 69 | 260 | 11.3 | 20.0 | 0.00 | 0.00 | 0.00 | 53 | 1014.4 |
| 20260830104647 | 69 | 258 | 13.9 | 20.9 | 0.00 | 0.00 | 0.00 | 54 | 1014.4 |
| 20260830103653 | 69 | 262 | 14.8 | 20.9 | 0.00 | 0.00 | 0.00 | 54 | 1014.3 |